Weather History for Meadow Lake, CO

Change the Weather History Date:

Friday, January 4, 2013

  Actual Average (KCOS) Record (KCOS)
Temperature  
Mean Temperature 26 °F 30 °F  
Max Temperature 43 °F 43 °F 70 °F (2001)
Min Temperature 10 °F 17 °F -18 °F (1959)
Degree Days  
Heating Degree Days 38 35  
Month to date heating degree days 140  
Since 1 July heating degree days 2712  
Cooling Degree Days 0 0  
Month to date cooling degree days 0  
Year to date cooling degree days 0  
Moisture  
Dew Point 0 °F    
Average Humidity 29    
Maximum Humidity 51    
Minimum Humidity 13    
Precipitation  
Precipitation 0.00 in 0.01 in 0.20 in (1913)
Month to date precipitation 0.04  
Year to date precipitation 0.04  
Snow  
Snow 0.00 in 0.20 in 2.80 in (1913)
Month to date snowfall 0.8  
Since 1 July snowfall 14.3  
Snow Depth -    
Sea Level Pressure  
Sea Level Pressure 30.06 in    
Wind  
Wind Speed 6 mph (NNW)    
Max Wind Speed 14 mph    
Max Gust Speed 21 mph    
Visibility 10 miles    
Events      
T = Trace of Precipitation, MM = Missing Value Source: NWS Daily Summary

Daily Weather History Graph

Daily Weather History Graph

Search for Another Location

Airport:

Trip Planner

Search our weather history database for the weather conditions in past years. The results will help you decide how hot, cold, wet, or windy it might be!

Date:

Astronomy

Jan. 04, 2013 Rise Set
Actual Time 7:17 AM MST 4:49 PM MST
Civil Twilight 6:47 AM MST 5:19 PM MST
Nautical Twilight 6:14 AM MST 5:52 PM MST
Astronomical Twilight 5:41 AM MST 6:25 PM MST
Moon No Moon Rise 11:05 AM MST (1/4)
Length of Visible Light 10h 31m
Length of Day
9h 32m
Waning Gibbous, 54% of the Moon is Illuminated
Jan 4
Waning Gibbous
Jan 4
Last Quarter
Jan 11
New
Jan 18
First Quarter
Jan 26
Full

Hourly Weather History & Observations

Time (MST) Temp. Windchill Dew Point Humidity Pressure Visibility Wind Dir Wind Speed Gust Speed Precip Events Conditions
12:14 AM 21.9 °F 14.5 °F -9.9 °F 24% 30.16 in 10.0 mi North 5.8 mph - N/A   Clear
12:34 AM 21.6 °F 16.8 °F -10.5 °F 24% 30.16 in 10.0 mi NNE 3.5 mph - N/A   Clear
12:54 AM 20.5 °F - -11.0 °F 24% 30.16 in 10.0 mi Calm Calm - N/A   Clear
1:14 AM 18.5 °F - -9.4 °F 29% 30.17 in 10.0 mi Calm Calm - N/A   Clear
1:34 AM 11.3 °F 5.1 °F -7.8 °F 42% 30.16 in 10.0 mi WNW 3.5 mph - N/A   Clear
1:54 AM 10.6 °F 4.3 °F -7.1 °F 45% 30.17 in 10.0 mi West 3.5 mph - N/A   Clear
2:14 AM 11.8 °F 5.7 °F -7.8 °F 41% 30.17 in 10.0 mi WNW 3.5 mph - N/A   Clear
9:34 AM 38.5 °F 34.1 °F -6.5 °F 15% 30.16 in 10.0 mi NW 5.8 mph - N/A   Clear
9:54 AM 39.6 °F 35.4 °F -7.4 °F 13% 30.16 in 10.0 mi NNW 5.8 mph - N/A   Clear
10:14 AM 39.7 °F 35.6 °F -6.9 °F 14% 30.15 in 10.0 mi NE 5.8 mph - N/A   Clear
10:34 AM 41.2 °F 37.3 °F -5.1 °F 14% 30.15 in 10.0 mi NE 5.8 mph - N/A   Clear
10:54 AM 42.1 °F 37.1 °F -3.3 °F 15% 30.13 in 10.0 mi NNE 8.1 mph - N/A   Clear
11:14 AM 42.6 °F 37.2 °F -1.7 °F 16% 30.12 in 10.0 mi NNE 9.2 mph - N/A   Clear
11:34 AM 43.3 °F 37.7 °F 0.5 °F 17% 30.11 in 10.0 mi NNE 10.4 mph - N/A   Clear
11:54 AM 43.5 °F 38.9 °F 1.0 °F 17% 30.10 in 10.0 mi NNE 8.1 mph - N/A   Clear
12:14 PM 43.7 °F 38.6 °F 0.9 °F 17% 30.08 in 10.0 mi NNE 9.2 mph 18.4 mph N/A   Clear
12:34 PM 43.2 °F 37.9 °F 1.6 °F 18% 30.06 in 10.0 mi North 9.2 mph 19.6 mph N/A   Clear
12:54 PM 43.7 °F 39.1 °F 2.3 °F 18% 30.05 in 10.0 mi North 8.1 mph 20.7 mph N/A   Clear
1:14 PM 43.9 °F 39.3 °F 2.5 °F 18% 30.04 in 10.0 mi North 8.1 mph 19.6 mph N/A   Clear
1:34 PM 43.7 °F 38.1 °F 2.7 °F 18% 30.03 in 10.0 mi NNE 10.4 mph 19.6 mph N/A   Clear
1:54 PM 43.9 °F 37.5 °F 3.4 °F 19% 30.02 in 10.0 mi NNE 12.7 mph 18.4 mph N/A   Clear
2:14 PM 43.7 °F 39.1 °F 3.2 °F 19% 30.02 in 10.0 mi NNE 8.1 mph 18.4 mph N/A   Clear
2:34 PM 43.7 °F 38.6 °F 3.9 °F 19% 30.02 in 10.0 mi North 9.2 mph - N/A   Clear
2:54 PM 43.3 °F 39.9 °F 3.2 °F 19% 30.02 in 10.0 mi NE 5.8 mph - N/A   Clear
3:14 PM 43.0 °F 39.5 °F 3.0 °F 19% 30.02 in 10.0 mi ENE 5.8 mph - N/A   Clear
3:34 PM 41.9 °F 38.2 °F 3.2 °F 20% 30.02 in 10.0 mi NNE 5.8 mph - N/A   Clear
3:54 PM 41.0 °F 36.4 °F 3.0 °F 21% 30.02 in 10.0 mi NE 6.9 mph - N/A   Clear
4:14 PM 37.6 °F 33.1 °F 2.8 °F 23% 30.02 in 10.0 mi East 5.8 mph - N/A   Clear
4:34 PM 34.2 °F 30.0 °F 3.0 °F 27% 30.02 in 10.0 mi ENE 4.6 mph - N/A   Clear
4:54 PM 33.1 °F 28.7 °F 3.0 °F 28% 30.02 in 10.0 mi SSE 4.6 mph - N/A   Clear
5:14 PM 29.1 °F - 0.1 °F 29% 30.02 in 10.0 mi Calm Calm - N/A   Clear
5:34 PM 29.5 °F - -0.6 °F 28% 30.02 in 10.0 mi Calm Calm - N/A   Clear
5:54 PM 24.1 °F 19.7 °F 1.4 °F 38% 30.03 in 10.0 mi WSW 3.5 mph - N/A   Clear
6:14 PM 24.3 °F 18.4 °F -0.0 °F 35% 30.03 in 10.0 mi WSW 4.6 mph - N/A   Clear
6:34 PM 20.1 °F 12.3 °F 2.7 °F 47% 30.03 in 10.0 mi West 5.8 mph - N/A   Clear
6:54 PM 22.1 °F - 2.7 °F 43% 30.02 in 10.0 mi Calm Calm - N/A   Clear
7:14 PM 18.9 °F 10.8 °F 3.2 °F 51% 30.02 in 10.0 mi WNW 5.8 mph - N/A   Clear
7:34 PM 19.4 °F 14.3 °F 2.5 °F 48% 30.01 in 10.0 mi NW 3.5 mph - N/A   Clear
7:54 PM 21.4 °F 13.8 °F 1.8 °F 43% 30.01 in 10.0 mi WNW 5.8 mph - N/A   Clear
8:14 PM 21.4 °F 10.4 °F 1.4 °F 42% 30.00 in 10.0 mi WNW 10.4 mph - N/A   Clear
8:34 PM 21.9 °F 11.0 °F 1.2 °F 41% 30.00 in 10.0 mi WNW 10.4 mph - N/A   Clear
8:54 PM 23.0 °F 13.1 °F 0.3 °F 37% 30.00 in 10.0 mi WNW 9.2 mph - N/A   Clear
9:14 PM 24.1 °F 14.4 °F 4.3 °F 43% 30.00 in 10.0 mi NW 9.2 mph - N/A   Clear
9:34 PM 26.6 °F 19.1 °F 4.8 °F 40% 30.00 in 10.0 mi NW 6.9 mph - N/A   Clear
9:54 PM 25.7 °F 19.0 °F 5.0 °F 41% 30.00 in 10.0 mi NW 5.8 mph - N/A   Clear
10:14 PM 26.1 °F 18.4 °F 5.5 °F 42% 30.00 in 10.0 mi NW 6.9 mph - N/A   Clear
10:34 PM 27.3 °F 19.9 °F 5.5 °F 40% 30.00 in 10.0 mi NW 6.9 mph - N/A   Clear
10:54 PM 28.6 °F 21.5 °F 5.5 °F 38% 30.00 in 10.0 mi NNW 6.9 mph - N/A   Clear
11:14 PM 29.5 °F 20.4 °F 5.0 °F 35% 30.00 in 10.0 mi NNW 10.4 mph - N/A   Clear
11:34 PM 29.7 °F 19.6 °F 5.0 °F 35% 30.00 in 10.0 mi NNW 12.7 mph 20.7 mph N/A   Clear
11:54 PM 29.3 °F 18.6 °F 4.6 °F 35% 30.00 in 10.0 mi NNW 13.8 mph 18.4 mph N/A   Clear